Location: Skalnate Pleso
(49.1889°N, 20.2450°E)
Time: 09:28:56
(UTC+01:00)

Cosmos 1933 - Pass Details

Date: 19 November 2019
Orbit: 546 x 565 km, 82.5° (Epoch: 10 December)

Event Time Altitude Azimuth Distance (km) Brightness Sun altitude
Exits shadow 05:50:26 - 339° (NNW) 2,460 6.3 -10.4°
Reaches altitude 10° 05:52:05 10° 330° (NNW) 1,833 5.6 -10.2°
Maximum altitude 05:55:36 30° 270° (W) 1,011 4.1 -9.6°
Drops below altitude 10° 05:59:05 10° 209° (SSW) 1,815 5.9 -9.1°
Sets 06:01:25 0° 198° (SSW) 2,703 6.9 -8.7°
